Location: Boulder Banks
(50.8667°N, 0.7333°E)
Time: 16:08:36
(UTC+00:00)

Daily predictions for brighter satellites

Satellite Brightness Start Highest point End
(mag) Time Altitude Azimuth Time Altitude Azimuth Time Altitude Azimuth
Cosmos-2242 3.6 16:30:17 10° SSE 16:34:15 36° E 16:38:13 10° NNE
RESURS DK-1 3.2 16:30:49 10° NNW 16:34:25 28° NE 16:38:00 10° ESE
CZ-2C R/B 2.9 16:31:51 10° SE 16:35:18 45° ENE 16:38:48 10° N
Cosmos 1023 Rocket 4.5 16:30:32 10° NNW 16:35:44 86° ENE 16:40:49 10° SSE
Cosmos 2082 3.9 16:31:07 10° SW 16:36:45 77° WNW 16:42:26 10° NNE
Cosmos 1544 4.4 16:35:10 10° NNW 16:38:12 38° W 16:41:15 10° SSW
Cosmos 1500 3.6 16:36:30 10° NNW 16:40:00 60° W 16:43:29 10° S
SJ-7 4.4 16:38:31 10° SSE 16:42:28 61° ENE 16:46:30 10° N
SJ-11-01 4.2 16:39:28 10° SSE 16:44:06 82° ENE 16:48:47 10° NNW
Cosmos 2251 Rocket 3.5 16:38:55 10° NNW 16:44:18 78° ENE 16:49:41 10° SSE
Cosmos 2221 4.2 16:43:18 10° ESE 16:45:34 14° E 16:47:47 10° NE
CORIOLIS 4.2 16:42:29 10° SE 16:47:42 55° ENE 16:52:59 10° N
Cosmos 1844 Rocket 3.5 16:46:25 10° SSE 16:51:15 32° ESE 16:56:06 10° NE
H-2A R/B 4.3 16:47:35 10° SSW 16:51:46 26° W 16:55:55 10° NW
Helios 1B rocket 2.4 16:48:03 10° SSE 16:52:00 84° WSW 16:55:59 10° NNW
Cosmos 2263 Rocket 2.5 16:47:11 10° SW 16:52:44 68° WNW 16:58:20 10° NNE
CZ-4B R/B 3.9 16:51:52 10° SE 16:55:20 45° ENE 16:58:55 10° N
Cosmos 1190 Rocket 4.1 16:50:59 10° NNW 16:56:15 57° ENE 17:01:26 10° SE
ATLAS CENTAUR R/B 3.8 16:53:38 10° WNW 16:57:31 45° SW 17:04:41 10° SSE
ARGOS 4.3 16:54:16 10° S 16:59:29 48° W 17:04:44 10° NNW
Cosmos 1602 4.2 16:56:23 10° NNW 17:00:05 62° W 17:03:47 10° S
ERS-2 2.6 16:57:44 10° S 17:00:33 49° WSW 17:03:26 10° NNW
Cosmos 2344 3.7 16:53:57 10° SSW 17:01:15 54° ESE 17:07:57 12° NE
Cosmos 1140 Rocket 4.1 16:59:59 10° NNW 17:05:05 60° WSW 17:10:07 10° S
Radarsat 4.5 17:01:14 10° SSE 17:06:23 70° ENE 17:11:35 10° N
COSMO-SKYMED 1 4.0 17:05:18 15° ENE 17:07:03 19° E 17:10:07 10° SE
USA 276 1.5 17:05:47 10° W 17:08:10 72° S 17:09:36 21° E
Meteor 1-25 Rocket 4.2 17:03:10 10° N 17:08:51 81° ENE 17:14:25 10° SSE
Cosmos 2227 Rocket 3.9 17:04:13 10° W 17:08:56 26° NW 17:13:39 10° NNE
Cosmos 2058 Rocket 4.4 17:06:30 10° SW 17:10:38 39° WNW 17:14:47 10° N
Cosmos 2082 Rocket 3.9 17:08:12 10° N 17:11:11 14° NNE 17:12:40 13° NE
Cosmos 2227 4.2 17:10:00 10° SSW 17:15:46 86° ESE 17:21:29 10° NNE
Meteor 1-31 Rocket 2.5 17:12:28 10° SSE 17:16:09 77° ENE 17:19:54 10° N
Cosmos 44 Rocket 4.3 17:14:12 10° NNW 17:18:51 31° NNE 17:21:38 19° E
Cosmos 1420 Rocket 4.4 17:14:17 10° S 17:19:12 42° ESE 17:23:13 15° NE
Cosmos 1271 Rocket 3.2 17:16:18 10° N 17:19:56 36° ENE 17:23:33 10° SE
Helios 1A 3.7 17:17:46 16° NE 17:20:31 32° E 17:24:15 10° SSE
Cosmos 1818 3.6 17:15:34 10° SW 17:21:00 83° SE 17:25:25 16° NE
APEX 3.1 17:19:10 10° SW 17:21:54 47° NW 17:23:38 18° NNE
Lacrosse 5 2.0 17:17:48 10° SW 17:22:46 61° SE 17:26:02 21° ENE
Meteor 1-5 Rocket 4.3 17:19:27 10° N 17:25:09 59° ENE 17:30:57 10° SSE
Cosmos 1624 Rocket 4.3 17:25:22 10° S 17:30:19 46° ESE 17:33:47 19° NE
Cosmos 1766 Rocket 3.6 17:27:07 10° N 17:31:23 51° ENE 17:35:36 10° SSE
YAOGAN 1 3.7 17:33:19 23° NE 17:33:19 23° NE 17:36:11 10° N
Cosmos 1553 Rocket 4.2 17:27:12 10° N 17:33:19 48° ENE 17:39:17 10° SSE
Meteor 1-26 Rocket 4.5 17:28:10 10° SSE 17:33:31 47° E 17:39:03 10° NNE
Lacrosse 4 Rocket 4.4 17:30:23 10° WNW 17:33:35 20° WSW 17:36:42 10° SSW
CZ-4B R/B 3.3 17:28:43 10° SSE 17:33:40 67° ENE 17:38:31 10° N
ADEOS Rocket 4.4 17:37:05 17° NE 17:37:05 17° NE 17:39:57 10° N
CBERS 1 LM4 rocket 4.3 17:32:29 10° SSE 17:37:08 58° ENE 17:41:48 10° N
Cosmos 2026 Rocket 4.0 17:31:29 10° S 17:37:43 70° E 17:44:04 10° NNE
Cosmos 1933 3.2 17:36:00 10° S 17:39:58 75° E 17:43:24 14° NNE
Meteor 2-2 Rocket 4.3 17:34:35 10° SSW 17:40:25 86° WNW 17:46:24 10° NNE
Timation 2 Rocket 3.9 17:35:01 10° SSW 17:40:54 64° ESE 17:45:16 19° NE
COSMOS 2455 3.5 17:37:44 10° S 17:43:03 34° ESE 17:45:12 27° ENE
Cosmos 1812 3.9 17:40:54 10° SW 17:44:22 41° WNW 17:47:54 10° N
ATLAS 2AS CENTAUR R/B 2.8 17:37:49 10° NW 17:44:46 79° SW 17:51:22 10° SE
Cosmos 2195 Rocket 4.5 17:39:47 10° S 17:46:07 90° NW 17:52:24 10° N
Cosmos 1782 2.8 17:43:23 10° SSW 17:47:17 80° W 17:50:53 12° N
CZ-4 R/B 4.3 17:44:16 10° SSE 17:48:16 62° ENE 17:52:20 10° N
Cosmos 676 Rocket 4.0 17:45:47 10° NNW 17:51:08 88° WSW 17:56:23 10° SSE
SMAP 4.5 17:50:59 10° SSW 17:55:21 40° W 17:59:46 10° NNW
ADEOS 3.5 17:50:17 10° SE 17:55:23 58° ENE 18:00:32 10° N
SKYMED 2 3.7 17:53:53 34° NE 17:55:27 50° E 17:59:40 10° S
Meteor 2-17 Rocket 4.4 17:49:26 10° S 17:55:35 89° W 18:01:45 10° N
Cosmos 2297 Rocket 4.5 17:55:10 10° NW 17:57:41 13° NNW 18:00:14 10° N
CZ-4B R/B 4.3 18:01:47 24° NNE 18:01:47 24° NNE 18:03:41 10° N
SL-4 R/B 3.6 17:58:09 10° S 17:59:44 17° SSE 17:59:44 17° SSE
Cosmos 1092 Rocket 4.0 17:54:44 10° SSW 18:00:52 82° W 18:07:04 10° N
Meteor 1-11 Rocket 4.5 17:57:05 10° N 18:01:07 30° NE 18:01:07 30° NE
SL-08 R/B 3.5 18:01:57 42° E 18:02:18 43° E 18:06:44 10° S
CZ-4B DEB 4.4 18:02:08 15° SE 18:06:29 46° ENE 18:11:46 10° N
Radarsat Rocket 4.0 18:03:46 10° SSE 18:09:38 82° WSW 18:16:01 10° NNW
Cosmos 1833 Rocket 2.8 18:04:50 10° NNW 18:10:23 53° NE 18:12:01 40° ESE
Cosmos 1842 Rocket 3.9 18:06:16 10° SSE 18:09:42 43° SE 18:09:42 43° SE
RESURS DK-1 3.6 18:08:28 10° NW 18:12:22 42° WSW 18:16:14 10° S
NOAA 6 4.2 18:08:11 10° S 18:13:18 74° WSW 18:18:27 10° NNW
Cosmos 1844 3.8 18:10:04 10° SSW 18:15:50 79° WNW 18:19:04 27° NNE
USA 234 3.6 18:14:30 36° E 18:16:35 48° SE 18:22:51 10° SSW
Cosmos 1417 Rocket 4.4 18:12:06 10° N 18:18:26 68° ENE 18:24:46 10° SSE
BREEZE-M DEB (TANK) 3.3 18:18:38 10° W 18:19:41 29° WSW 18:19:41 29° WSW
Cosmos 1850 Rocket 3.8 18:15:31 10° NNW 18:20:43 70° ENE 18:22:30 41° SE
Cosmos 1741 Rocket 3.9 18:16:24 10° NNW 18:21:44 68° ENE 18:23:32 41° SE
Cosmos 2221 2.7 18:18:13 10° SSW 18:22:25 67° WNW 18:24:30 29° N
Cosmos 1515 3.7 18:20:12 10° SSW 18:23:38 70° W 18:23:38 70° W
Cosmos 2056 Rocket 3.8 18:19:54 10° SSW 18:25:18 69° WNW 18:28:18 27° NNE
EO 1 Delta rocket 4.2 18:26:27 10° S 18:32:33 85° W 18:37:33 10° N
Cosmos 1844 Rocket 3.3 18:29:29 10° SW 18:34:55 52° NW 18:37:46 27° N
Cosmos 2263 Rocket 4.3 18:33:49 10° W 18:37:45 19° NW 18:41:03 12° N
Cosmos 2315 Rocket 4.1 18:33:32 10° N 18:38:47 51° NE 18:38:47 51° NE
Okean 3 Rocket 4.3 18:37:01 10° NNW 18:41:26 54° W 18:45:50 10° S
Cosmos 1452 Rocket 4.0 18:37:18 10° S 18:41:04 44° SSE 18:41:04 44° SSE
COSMO-SKYMED 1 3.1 18:42:31 44° NNW 18:43:34 57° WNW 18:47:49 10° SSW
COSMOS 2406 4.4 18:41:02 10° NNW 18:44:13 28° N 18:44:13 28° N
PAYLOAD B 4.2 18:47:04 64° NNE 18:47:04 64° NNE 18:51:59 10° NNW
CZ-4B R/B 4.3 18:48:54 32° N 18:48:54 32° N 18:51:56 10° N
Cosmos 968 Rocket 4.0 18:42:52 10° NNW 18:46:40 47° N 18:46:40 47° N
Cosmos 2082 Rocket 3.4 18:51:30 10° NNW 18:54:32 29° N 18:54:32 29° N
Meteor 2-6 Rocket 4.4 18:53:32 10° SSW 18:59:30 77° WNW 19:01:39 42° N
Cosmos 44 Rocket 3.6 18:55:39 10° NW 19:00:21 68° W 19:00:21 68° W
Lacrosse 5 2.6 19:00:56 10° W 19:05:14 49° NW 19:05:14 49° NW
YAOGAN 1 4.3 19:10:23 28° NW 19:10:23 28° NW 19:12:39 10° NNW
Cosmos 2344 4.1 19:08:41 10° WSW 19:15:44 49° NNW 19:17:58 39° NNE
S3M 4.5 19:13:07 10° NNW 19:19:07 57° W 19:25:11 10° S
ADEOS Rocket 4.3 19:24:01 28° N 19:24:01 28° N 19:26:46 10° NNW
COSMOS 2455 3.3 19:22:49 10° SW 19:28:22 57° WNW 19:28:22 57° WNW
Cosmos 2266 Rocket 4.4 19:28:22 10° SSW 19:33:54 57° W 19:33:54 57° W
Cosmos 1833 Rocket 4.2 19:49:07 10° NW 19:53:46 32° W 19:53:46 32° W
USA 234 4.0 20:01:51 48° W 20:01:51 48° W 20:06:25 10° WSW
